EW4557 Weather Reports


Display with metric or nautical units.
time (UTC)temp
F
wind
direction
speed
MPH
gust
MPH
rain 1hr
in
rain 24hr
in
rain mn
in
humidity
%
barometer
mb
20260503011015 66 0 2.0 5.0 0.00 0.01 0.00 28 1021.0
20260503010055 66 0 2.0 4.0 0.00 0.01 0.00 26 1020.9
20260503005015 67 0 1.0 8.0 0.00 0.01 0.00 25 1020.8
20260503004055 67 0 2.0 5.0 0.00 0.01 0.00 26 1020.6
20260503002015 68 0 4.0 9.0 0.00 0.01 0.00 25 1020.7
20260503001015 68 0 2.0 5.0 0.00 0.01 0.00 26 1020.8
20260503000015 68 0 4.0 8.0 0.00 0.01 0.00 26 1021.2
20260502235015 68 0 4.0 9.0 0.00 0.01 0.00 26 1021.2
20260502234055 69 0 3.0 8.0 0.00 0.01 0.00 27 1021.2
20260502233015 69 0 3.0 10.0 0.00 0.01 0.00 27 1021.2
20260502232015 70 0 5.0 10.0 0.00 0.01 0.00 26 1021.2
20260502231135 70 0 1.0 6.0 0.00 0.01 0.00 26 1020.9
20260502230055 69 0 2.0 10.0 0.00 0.01 0.00 27 1021.1
20260502225135 69 0 2.0 9.0 0.00 0.01 0.00 26 1021.1
20260502224015 69 0 3.0 10.0 0.00 0.01 0.00 27 1021.1
20260502223055 69 0 3.0 10.0 0.00 0.01 0.00 27 1021.6
20260502222055 69 0 2.0 5.0 0.00 0.01 0.00 26 1021.7
20260502221135 68 0 2.0 8.0 0.00 0.01 0.00 27 1021.9
20260502220055 69 0 4.0 9.0 0.00 0.01 0.00 25 1022.3
20260502215135 69 0 2.0 5.0 0.00 0.01 0.00 27 1022.6
20260502214015 69 0 3.0 10.0 0.00 0.01 0.00 27 1022.8
20260502213055 68 0 4.0 12.0 0.00 0.01 0.00 28 1022.9
20260502212055 67 0 2.0 8.0 0.00 0.01 0.00 29 1023.1
20260502211135 68 0 5.0 11.0 0.00 0.01 0.00 28 1023.3
20260502210055 68 0 7.0 13.0 0.00 0.01 0.00 29 1023.5
20260502205015 68 0 4.0 8.0 0.00 0.01 0.00 29 1023.7
20260502204137 68 0 4.0 10.0 0.00 0.01 0.00 29 1023.9
20260502203137 68 0 2.0 9.0 0.00 0.01 0.00 31 1023.7
20260502200057 66 0 2.0 5.0 0.00 0.01 0.00 31 1023.9
20260502195017 67 0 2.0 9.0 0.00 0.01 0.00 30 1024.2
20260502194057 66 0 3.0 10.0 0.00 0.01 0.00 31 1024.0
20260502193016 67 0 4.0 9.0 0.00 0.02 0.00 30 1024.4
20260502192016 67 0 4.0 9.0 0.00 0.02 0.00 30 1024.6
20260502185016 66 0 3.0 6.0 0.00 0.05 0.00 31 1025.0
20260502184016 66 0 4.0 8.0 0.00 0.06 0.00 31 1025.1
20260502183056 65 0 3.0 8.0 0.00 0.07 0.00 32 1025.2
20260502182016 66 0 4.0 10.0 0.00 0.08 0.00 30 1025.5
20260502181016 65 0 3.0 12.0 0.00 0.09 0.00 32 1025.6
20260502180136 64 0 4.0 11.0 0.00 0.09 0.00 33 1025.6
20260502164056 59 0 3.0 6.0 0.00 0.12 0.00 57 1026.2
20260502163056 58 0 3.0 9.0 0.00 0.12 0.00 59 1025.9
20260502162016 57 0 2.0 8.0 0.00 0.13 0.00 62 1025.9
20260502151056 51 0 3.0 10.0 0.00 0.13 0.00 72 1025.5
20260502123016 38 0.0 0.0 0.00 0.13 0.00 92 1024.0
20260502122015 37 0.0 0.0 0.00 0.13 0.00 92 1023.5
20260502121015 37 0.0 0.0 0.00 0.13 0.00 91 1023.4
20260502115055 38 0 0.0 4.0 0.00 0.13 0.00 92 1023.6
20260502114055 37 0 2.0 4.0 0.00 0.13 0.00 93 1023.3
20260502113015 37 0 1.0 4.0 0.00 0.13 0.00 93 1023.3
20260502110015 35 0.0 0.0 0.00 0.14 0.00 91 1022.7
20260502105055 35 0.0 0.0 0.00 0.14 0.00 91 1022.5
20260502103055 35 0.0 0.0 0.00 0.15 0.00 91 1022.8
20260502102135 35 0.0 0.0 0.00 0.16 0.00 90 1022.6
20260502101015 36 0.0 0.0 0.00 0.16 0.00 90 1022.5
20260502090135 39 0 0.0 1.0 0.00 0.21 0.00 92 1022.8
20260502065135 39 0.0 0.0 0.00 0.22 0.00 89 1022.4
20260502064055 39 0.0 0.0 0.00 0.23 0.00 89 1022.4
20260502063055 40 0.0 0.0 0.00 0.24 0.00 89 1022.6
20260502062015 40 0.0 0.0 0.00 0.24 0.00 90 1022.8
20260502061015 40 0.0 0.0 0.00 0.26 0.00 90 1022.7
20260502060137 41 0.0 0.0 0.00 0.26 0.26 89 1022.6
20260502055016 41 0.0 0.0 0.01 0.27 0.26 90 1022.7
20260502054056 41 0 1.0 3.0 0.01 0.28 0.26 89 1022.6
20260502053056 41 0.0 0.0 0.01 0.32 0.26 89 1022.6
20260502052016 41 0.0 0.0 0.01 0.34 0.26 89 1022.6
20260502051016 42 0.0 0.0 0.01 0.34 0.26 89 1022.7
20260502050016 42 0.0 0.0 0.01 0.34 0.26 89 1022.6
20260502045016 42 0.0 0.0 0.00 0.33 0.25 89 1022.8
20260502043016 41 0.0 1.0 0.00 0.33 0.25 89 1022.8
20260502041016 41 0.0 0.0 0.00 0.33 0.25 87 1022.9
20260502040056 41 0.0 0.0 0.00 0.33 0.25 87 1022.8
20260502035136 42 0.0 0.0 0.00 0.33 0.25 87 1022.7
20260502034016 42 0.0 0.0 0.00 0.33 0.25 87 1022.8
20260502032016 43 0 0.0 1.0 0.00 0.33 0.25 85 1022.4
20260502031056 43 0 0.0 2.0 0.00 0.33 0.25 85 1022.5
20260502030015 44 0.0 0.0 0.00 0.33 0.25 86 1022.5
20260502025056 44 0 1.0 3.0 0.00 0.34 0.25 85 1022.4
20260502024015 45 0.0 0.0 0.00 0.35 0.25 83 1022.2
20260502023055 45 0.0 1.0 0.00 0.35 0.25 82 1022.1
20260502022015 46 0 0.0 1.0 0.00 0.35 0.25 83 1022.0
20260502021056 46 0.0 0.0 0.00 0.35 0.25 82 1022.0
20260502020055 47 0 0.0 3.0 0.00 0.35 0.25 81 1022.2
20260502015136 47 0 1.0 3.0 0.00 0.35 0.25 81 1022.1
20260502014015 48 0 1.0 3.0 0.00 0.35 0.25 81 1022.1
20260502013055 48 0 1.0 4.0 0.00 0.35 0.25 81 1022.0
20260502012135 48 0 2.0 4.0 0.00 0.35 0.25 81 1021.9